User: anonymous   Login
Location: Caltech
(34.1382°N, 118.1253°W)
Time: 18:49:13
(UTC-08:00)
Language:

SL-16 R/B - Orbit

View from above orbital plane
View from above orbital plane
View from above satellite
View from above satellite

Ground track
Ground track

The orbit data is extracted from the following two-line orbital elements,

1 31793U 07029B   15062.28848094  .00000309  00000-0  18641-3 0  9993
2 31793 070.9776 346.9866 0002303 272.7702 238.5571 14.14312754396380
Epoch (UTC): 03 March 2015 06:55:24
Eccentricity: 0.0002303
inclination: 70.9776°
perigee height: 843 km
apogee height: 846 km
right ascension of ascending node: 346.9866°
argument of perigee: 272.7702°
revolutions per day: 14.14312754
mean anomaly at epoch: 238.5571°
orbit number at epoch: 39638

The dashed part of the orbit path shows where the satellite is in the earth's shadow,  

DLR